This is the latest recevied weather packets stored in our database for station/object N8GD. If no packets are shown the sender has not sent any weather packets the latest 10 day(s).
| Time | Temp. | Humidity | Pressure | Rain* | Wind** | Luminosity | Snow |
|---|---|---|---|---|---|---|---|
| 1777930663 | 21.11° C | 54% | 1007 hPa | 0 mm | - | - | - |
| 1777929762 | 20.56° C | 55% | 1007 hPa | 0 mm | - | - | - |
| 1777928863 | 21.67° C | 53% | 1006.8 hPa | 0 mm | - | - | - |
| 1777927962 | 21.67° C | 53% | 1006.9 hPa | 0 mm | - | - | - |
| 1777927064 | 20.56° C | 56% | 1006.8 hPa | 0 mm | - | - | - |
| 1777926163 | 21.11° C | 54% | 1007.3 hPa | 0 mm | - | - | - |
| 1777925264 | 21.67° C | 53% | 1007.4 hPa | 0 mm | - | - | - |
| 1777924363 | 21.67° C | 52% | 1007.7 hPa | 0 mm | - | - | - |
| 1777923463 | 21.11° C | 56% | 1007.8 hPa | 0 mm | - | - | - |
| 1777922563 | 21.11° C | 56% | 1007.9 hPa | 0 mm | - | - | - |
| 1777921663 | 21.11° C | 54% | 1008 hPa | 0 mm | - | - | - |
| 1777920762 | 21.11° C | 54% | 1008.1 hPa | 0 mm | - | - | - |
| 1777919863 | 20.56° C | 54% | 1008.5 hPa | 0 mm | - | - | - |
| 1777918962 | 20.56° C | 57% | 1008.5 hPa | 0 mm | - | - | - |
| 1777918063 | 20° C | 53% | 1008.6 hPa | 0 mm | - | - | - |
| 1777917162 | 20.56° C | 54% | 1008.7 hPa | 0 mm | - | - | - |
| 1777916264 | 20° C | 56% | 1008.9 hPa | 0 mm | - | - | - |
| 1777915363 | 20° C | 55% | 1009 hPa | 0 mm | - | - | - |
| 1777915302 | 20° C | 55% | 1009 hPa | 0 mm | - | - | - |
| 1777914462 | 19.44° C | 58% | 1009.2 hPa | 0 mm | - | - | - |
| 1777913562 | 18.89° C | 54% | 1009.4 hPa | 0 mm | - | - | - |
| 1777912662 | 18.89° C | 53% | 1009.8 hPa | 0 mm | - | - | - |
| 1777911764 | 18.33° C | 56% | 1009.8 hPa | 0 mm | - | - | - |
| 1777910863 | 17.78° C | 56% | 1010 hPa | 0 mm | - | - | - |
| 1777909963 | 17.22° C | 54% | 1010.4 hPa | 0 mm | - | - | - |
* Rain latest hour (hover to see other rain measurements)
** Current wind speed in m/s (hover to see current wind gust speed)